Location: Desert Center
(33.7130°N, 115.4010°W)
Time: 19:06:50
(UTC-07:00)

Daily predictions for brighter satellites

Satellite Brightness Start Highest point End
(mag) Time Altitude Azimuth Time Altitude Azimuth Time Altitude Azimuth
Cosmos 2322 Rocket 2.4 18:22:25 10° N 18:27:50 47° ENE 18:33:13 10° SE
SL-8 R/B 3.8 18:23:40 10° SW 18:28:26 70° SE 18:33:14 10° NE
Aureole 1 Rocket 4.1 18:23:41 10° SSW 18:31:00 89° ESE 18:36:34 10° NNE
Cosmos 2218 Rocket 4.0 18:24:56 10° S 18:31:01 67° E 18:37:07 10° NNE
EO 1 Del DPAF 3.2 18:27:34 10° NNE 18:31:25 76° E 18:35:15 10° S
Cosmos 1408 Rocket 3.6 18:27:03 10° N 18:31:30 69° E 18:35:55 10° SSE
Cosmos 1328 3.8 18:31:21 10° N 18:35:17 62° E 18:39:11 10° SSE
Meteor 1-11 4.5 18:29:50 10° N 18:35:26 49° ENE 18:40:57 10° SSE
Meteor 2-15 Rocket 4.4 18:33:30 10° N 18:39:35 72° E 18:45:41 10° SSE
DELTA 2 R/B (1) 4.2 18:36:03 10° WNW 18:41:25 46° N 18:46:42 10° ENE
Atlas Centaur 2 2.3 18:36:49 10° WSW 18:41:27 59° S 18:47:12 11° E
Cosmos 1484 Rocket 4.0 18:38:10 10° S 18:41:46 45° W 18:45:22 10° NNW
NOSS 3-4 (A) 4.1 18:34:46 10° NNW 18:41:58 78° WSW 18:49:38 10° SSE
NOSS 3-4 (C) 4.1 18:34:53 10° NNW 18:42:05 79° WSW 18:49:45 10° SSE
YAOGAN 1 2.6 18:39:43 10° SSE 18:44:02 88° W 18:48:23 10° NNW
USA 267 3.7 18:39:03 10° ENE 18:45:14 44° SE 18:51:22 10° SSW
Meteor 1-16 Rocket 4.4 18:40:23 10° SSW 18:45:39 71° W 18:50:59 10° N
ALOS 2.8 18:42:39 10° SE 18:46:52 35° ENE 18:51:07 10° N
Cosmos 1727 Rocket 4.2 18:41:01 10° N 18:47:10 50° E 18:53:16 10° SSE
CZ-4 R/B 2.7 18:46:16 10° S 18:50:21 47° W 18:54:25 10° NNW
Cosmos 1703 3.7 18:49:36 10° N 18:53:18 38° E 18:56:57 10° SSE
GP-B 3.0 18:49:09 10° N 18:53:36 83° E 18:58:02 10° S
CZ-3 Stage 3 0.7 18:52:22 10° WSW 18:54:06 34° S 18:55:08 18° ESE
FENGYUN 3A 4.0 18:49:20 10° SE 18:54:24 44° ENE 18:59:31 10° N
CZ-4C R/B 3.2 18:51:22 10° SSE 18:54:59 20° ESE 18:57:35 14° ENE
Tiangong 1 0.7 18:56:18 10° NW 18:58:59 63° NNE 19:00:26 23° ESE
MOS 1 4.3 18:53:30 10° SSE 18:59:09 90° ENE 19:04:52 10° NNW
Cosmos 1400 Rocket 2.7 18:58:47 10° N 19:02:48 64° E 19:06:44 10° SSE
ASTRO E2 3.0 18:59:03 10° WSW 19:02:57 55° S 19:05:26 21° E
GRACE-2 3.6 19:02:00 10° SSE 19:04:31 56° E 19:07:04 10° N
ERS-2 4.4 19:01:33 10° SSW 19:04:46 29° W 19:08:02 10° NW
GRACE-1 3.5 19:03:49 10° S 19:06:23 64° E 19:08:57 10° N
Cosmos 1908 3.3 19:07:46 10° S 19:11:36 55° E 19:15:26 10° NNE
Cosmos 2219 Rocket 4.1 19:09:57 10° NE 19:11:02 11° NE 19:11:02 11° NE
Cosmos 1624 Rocket 4.3 19:07:07 10° NNW 19:12:19 70° WSW 19:17:31 10° S
Cosmos 1048 Rocket 4.4 19:08:21 10° SSE 19:13:03 37° E 19:17:44 10° NE
Thor Agena Rocket 3.4 19:09:53 10° NNE 19:14:57 63° ESE 19:19:56 10° S
Cosmos 1743 Rocket 3.8 19:13:42 10° N 19:18:04 72° W 19:22:27 10° S
Iridium 4 Rocket 3.7 19:13:20 10° SSE 19:18:27 53° E 19:23:58 10° NNE
H-2A R/B 3.3 19:18:13 28° ESE 19:19:26 35° ENE 19:23:01 10° N
Cosmos 2151 2.9 19:16:13 10° N 19:20:31 89° WSW 19:24:45 10° S
Cosmos 1842 Rocket 4.4 19:16:50 10° SSW 19:21:11 53° W 19:25:34 10° N
SL-16 R/B 2.9 19:15:56 10° NNW 19:21:28 55° WSW 19:26:58 10° S
FALCON 9 R/B 2.8 19:20:40 10° WSW 19:22:50 23° SSW 19:25:32 13° SE
GENESIS II 4.4 19:19:17 10° SW 19:23:14 71° WNW 19:26:52 12° NNE
Delta 2 Rocket 2.8 19:20:12 10° W 19:23:49 78° NNW 19:24:46 45° ENE
Cosmos 1726 4.0 19:21:31 10° SSE 19:22:25 16° SSE 19:22:25 16° SSE
Cosmos 44 3.3 19:21:02 10° S 19:25:13 43° ESE 19:26:24 34° ENE
FREGAT/IRIS 4.0 19:28:22 26° NNE 19:28:22 26° NNE 19:29:56 10° N
Centaur D AC-28 3.8 19:25:59 10° SSW 19:29:27 23° SE 19:30:48 22° ESE
ISS -2.1 19:27:57 10° WNW 19:30:54 31° SW 19:33:00 16° S
APEX 2.7 19:27:47 10° SSW 19:31:24 60° ESE 19:31:24 60° ESE
Cosmos 2221 2.4 19:28:05 10° S 19:32:22 84° E 19:36:43 10° N
Cosmos 44 Rocket 3.2 19:31:26 10° SSW 19:36:02 57° ESE 19:37:31 39° ENE
Cosmos 1500 Rocket 4.4 19:36:11 10° NNW 19:40:24 50° W 19:44:34 10° SSW
Cosmos 1315 Rocket 2.9 19:39:45 10° N 19:43:50 80° W 19:47:56 10° S
Cosmos 158 Rocket 3.9 19:41:17 10° SSW 19:46:15 80° WNW 19:51:24 10° NNE
Cosmos 1535 Rocket 4.3 19:40:46 10° S 19:46:52 70° E 19:52:56 10° NNE
Cosmos 921 Rocket 2.9 19:43:10 10° NNW 19:47:38 80° ENE 19:48:43 50° SSE
Cosmos 1269 Rocket 3.9 19:48:07 10° SSW 19:53:23 82° ESE 19:57:37 16° NNE
COSMOS 2428 3.0 19:53:33 10° N 19:58:24 46° NE 19:58:24 46° NE
RESURS DK-1 2.4 19:55:03 10° NNW 19:59:03 76° W 19:59:03 76° W
Cosmos 2098 Rocket 3.3 19:56:14 10° SSW 20:00:02 68° W 20:04:55 10° N
Cosmos 2333 Rocket 3.8 19:57:48 10° N 20:00:04 20° NNE 20:00:04 20° NNE
FengYun 1-2 T 4.4 19:57:50 10° S 20:03:20 72° WSW 20:08:50 10° NNW
SJ-6B 4.2 20:06:33 30° NNW 20:06:33 30° NNW 20:08:34 10° NNW
Cosmos 2360 Rocket 2.6 20:00:05 10° NNW 20:05:39 60° WSW 20:09:58 17° S
Cosmos 2219 3.2 20:00:34 10° SSW 20:06:18 85° WNW 20:09:45 26° NNE
SL-24 R/B - RUBIN 2 4.0 20:07:47 10° NNW 20:11:47 61° NW 20:11:47 61° NW
MOS 1-B Rocket 3.9 20:16:02 62° NNE 20:16:02 62° NNE 20:21:01 10° N
Cosmos 1452 Rocket 4.5 20:12:40 10° NNW 20:17:40 46° WSW 20:21:11 18° SSW
Cosmos 1934 Rocket 4.4 20:21:35 10° SSW 20:27:50 64° W 20:34:11 10° N
USA 267 4.1 20:24:25 23° NNE 20:28:10 46° NW 20:34:19 10° WSW
DELTA 2 R/B (1) 4.1 20:22:52 10° WNW 20:27:28 53° NNW 20:27:28 53° NNW
Atlas Centaur 2 2.7 20:25:02 10° W 20:29:50 54° SSW 20:29:50 54° SSW
CZ-4C R/B 3.1 20:38:06 10° SW 20:42:52 42° NW 20:42:52 42° NW
Cosmos 2219 Rocket 4.0 20:50:43 10° NNW 20:52:46 23° NNW 20:52:46 23° NNW
